[[{"header":{"parameterUnit":"m.s-1","parameterCategory":1,"la1":30.2991,"la2":30.254,"lo1":-89.0895,"lo2":-89.0444,"dy":0.0017,"dx":0.0017,"nx":28,"ny":28,"refTime":"2023-10-31T21:00:00:Z","depth":0,"parameterNumber":2,"parameterNumberName":"U-component_of_WINDS"},"data":[0,0,0,0,0,0,0,0,0,0,0,0,0,0,0,0,0,0,0,0,0,0,0,0,0,0,0,0,0,0,0,0,0,0,0,0,0,0,0,0,0,0,0,0,0,0,0,0,0,0,0,0,0,0,0,0,0,0,-1.7256,-1.7257,0,-1.7336,-1.7337,-1.7338,-1.7286,-1.7284,-1.7281,-1.7279,-1.7363,-1.7367,-1.7371,0,0,0,0,0,0,0,0,0,0,0,0,0,-1.7058,-1.7062,-1.7256,-1.7257,-1.7258,-1.7336,-1.7337,-1.7338,-1.7287,-1.7284,-1.7281,-1.7278,-1.7361,-1.7366,-1.7372,0,0,0,0,0,0,0,0,0,0,0,0,0,-1.7141,-1.7063,-1.7256,-1.7241,-1.7241,-1.7336,-1.7337,-1.7338,-1.7287,-1.7284,-1.728,-1.7277,-1.7359,-1.7366,-1.7373,-1.7486,0,0,-1.7393,-1.7396,0,0,0,0,0,0,0,0,-1.7137,-1.7149,-1.7243,-1.7243,-1.7242,-1.7297,-1.7298,-1.7388,-1.7288,-1.727,-1.7279,-1.7275,-1.7344,-1.7352,-1.7375,-1.749,-1.7493,-1.7394,-1.7398,-1.74,-1.7402,0,0,0,0,0,0,0,-1.7131,-1.7145,-1.7287,-1.7244,-1.7244,-1.7231,-1.7239,-1.7315,-1.7326,-1.7271,-1.7268,-1.7278,-1.7343,-1.7368,-1.7376,-1.7495,-1.7393,-1.7399,-1.7403,-1.7406,-1.7706,-1.7709,0,0,0,0,0,0,-1.7126,-1.7141,-1.7285,-1.729,-1.718,-1.7238,-1.7246,-1.7283,-1.7325,-1.7328,-1.7281,-1.7275,-1.7359,-1.7368,-1.7379,-1.7515,-1.74,-1.7407,-1.7411,-1.7702,-1.7707,-1.7711,0,0,0,0,0,0,-1.7122,-1.714,-1.7282,-1.7214,-1.7231,-1.7245,-1.7287,-1.7287,-1.7312,-1.7332,-1.7334,-1.7304,-1.7356,-1.737,-1.7459,-1.7517,-1.741,-1.7416,-1.7697,-1.7703,-1.7709,-1.7787,0,0,0,0,0,0,-1.7117,-1.7139,-1.7182,-1.7216,-1.7235,-1.7361,-1.729,-1.7291,-1.7324,-1.7317,-1.7355,-1.7358,-1.7354,-1.745,-1.7466,-1.7524,-1.7421,-1.7692,-1.77,-1.7707,-1.7779,-1.7795,-1.7808,0,0,0,0,0,-1.711,-1.7201,-1.7185,-1.7202,-1.729,-1.7365,-1.7376,-1.737,-1.7328,-1.7372,-1.7385,-1.7357,-1.7507,-1.7459,-1.7477,-1.7538,-1.7688,-1.7698,-1.7706,-1.7773,-1.7792,-1.7808,0,0,0,0,0,0,-1.7175,-1.7206,-1.7187,-1.7292,-1.7326,-1.7356,-1.7411,-1.739,-1.7437,-1.7429,-1.7419,-1.7428,-1.7522,-1.7538,-1.7485,-1.765,-1.7591,-1.7604,-1.7636,-1.7654,-1.7668,-1.7663,-1.7427,0,0,0,0,0,-1.7202,-1.726,-1.7283,-1.7373,-1.7391,-1.7398,-1.7431,-1.7423,-1.7458,-1.7472,-1.7491,-1.7526,-1.7581,-1.7618,-1.767,-1.778,-1.7788,-1.7831,-1.7845,-1.7857,-1.7869,-1.7929,-1.7948,-1.774,-1.774,-1.774,0,0,-1.7258,-1.7281,-1.7319,-1.7387,-1.7413,-1.7473,-1.7411,-1.7478,-1.7523,-1.7482,-1.7569,-1.7584,-1.7622,-1.7723,-1.7768,-1.7739,-1.7928,-1.7868,-1.7877,-1.7883,-1.794,-1.7959,-1.7977,-1.7746,-1.7745,-1.7744,0,0,-1.7391,-1.7414,-1.7492,-1.7518,-1.7557,-1.756,-1.7579,-1.7611,-1.762,-1.7706,-1.7676,-1.7729,-1.7824,-1.7853,-1.788,-1.802,-1.7997,-1.8037,-1.8113,-1.8172,-1.8188,-1.8202,-1.8254,-1.8272,-1.8049,-1.8049,-1.8049,0,-1.7456,-1.7546,-1.7535,-1.7604,-1.7635,-1.7599,-1.7678,-1.7704,-1.7758,-1.778,-1.7746,-1.7864,-1.7888,-1.7994,-1.8029,-1.8051,-1.8072,-1.8034,-1.8186,-1.8201,-1.8214,-1.8263,-1.8282,-1.8054,-1.8053,-1.8053,-1.8052,0,-1.7624,-1.7686,-1.7745,-1.7797,-1.7834,-1.7908,-1.7908,-1.7946,-1.7934,-1.7941,-1.8028,-1.8054,-1.8111,-1.8135,-1.8124,-1.824,-1.8221,-1.8187,-1.8129,-1.8239,-1.8285,-1.8303,-1.8061,-1.8059,-1.8057,-1.8056,0,0,-1.7804,-1.7847,-1.7869,-1.7892,-1.793,-1.7979,-1.805,-1.8104,-1.8138,-1.8175,-1.8235,-1.8315,-1.8283,-1.8314,-1.8305,-1.8356,-1.8467,-1.8316,-1.8316,-1.8344,-1.8597,-1.8624,-1.8645,-1.8449,-1.8453,-1.8456,-1.8594,0,-1.794,-1.8065,-1.8056,-1.8174,-1.8231,-1.8197,-1.8259,-1.8289,-1.8297,-1.8346,-1.8354,-1.8412,-1.8365,-1.8383,-1.8432,-1.8443,-1.8518,-1.8432,-1.8506,-1.8509,-1.85,-1.8669,-1.8698,-1.8828,-1.8611,-1.8614,-1.8617,0,-1.8117,-1.816,-1.8283,-1.8312,-1.8336,-1.8392,-1.8441,-1.8488,-1.8521,-1.8523,-1.8556,-1.8538,-1.861,-1.8547,-1.8646,-1.8588,-1.8617,-1.8627,-1.8632,-1.864,-1.8571,-1.8684,-1.8869,-1.8889,-1.8644,-1.8642,-1.864,0,-1.8238,-1.8326,-1.8411,-1.8432,-1.8467,-1.8507,-1.8524,-1.8553,-1.8586,-1.8628,-1.8649,-1.8698,-1.8726,-1.8765,-1.8761,-1.8716,-1.8861,-1.8798,-1.8865,-1.8866,-1.89,-1.8899,-1.9094,-1.8915,-1.8915,-1.8914,-1.8914,0,-1.8393,-1.847,-1.8466,-1.8519,-1.8604,-1.8592,-1.8676,-1.8688,-1.8714,-1.8768,-1.874,-1.8791,-1.8782,-1.8833,-1.883,-1.8912,-1.8924,-1.8928,-1.8927,-1.8932,-1.8932,-1.8953,-1.8945,-1.8919,-1.8918,-1.8917,-1.8916,0,-1.8544,-1.8544,-1.8635,-1.866,-1.8668,-1.873,-1.8751,-1.8801,-1.8804,-1.8873,-1.8889,-1.8895,-1.8954,-1.8952,-1.9019,-1.9017,-1.9118,-1.9105,-1.9107,-1.9106,-1.9173,-1.9168,-1.9391,-1.942,-1.922,-1.9222,-1.9224,0,-1.8644,-1.8703,-1.8734,-1.8768,-1.8787,-1.8842,-1.8875,-1.8864,-1.8899,-1.894,-1.8985,-1.904,-1.9085,-1.9179,-1.919,-1.9241,-1.923,-1.9304,-1.9238,-1.9241,-1.9233,-1.9231,-1.9237,-1.9319,-1.9321,-1.9323,-1.9324,0,-1.8823,-1.8819,-1.8868,-1.8916,-1.8956,-1.8993,-1.9028,-1.9057,-1.905,-1.9091,-1.915,-1.9184,-1.9251,-1.9307,-1.9355,-1.9371,-1.9348,-1.9345,-1.9363,-1.9371,-1.937,-1.9373,-1.9146,-1.934,-1.9339,-1.9338,-1.9337,-1.9336,-1.8953,-1.9003,-1.9032,-1.9087,-1.9111,-1.9143,-1.9191,-1.92,-1.9249,-1.9303,-1.9293,-1.9359,-1.9389,-1.9451,-1.9471,-1.9523,-1.9496,-1.9523,-1.953,-1.9537,-1.9546,-1.9359,-1.9531,-1.9531,-1.953,-1.953,-1.9529,0,-1.9131,-1.9147,-1.9197,-1.9246,-1.9289,-1.926,-1.9296,-1.9334,-1.9393,-1.9422,-1.9465,-1.9533,-1.9586,-1.9599,-1.9651,-1.9689,-1.9679,-1.9703,-1.9701,-1.9706,-1.9566,-1.9545,-1.971,-1.971,-1.971,-1.971,-1.971,-1.971,-1.9229,-1.9313,-1.9312,-1.9407,-1.9422,-1.9487,-1.951,-1.954,-1.9563,-1.9639,-1.9683,-1.9691,-1.9714,-1.9766,-1.9813,-1.9816,-1.9837,-1.9866,-1.9864,-1.9734,-1.9716,-1.9698,-1.9679,-1.987,-1.987,-2.0,-2.0001,-2.0002]},{"header":{"parameterUnit":"m.s-1","parameterCategory":1,"la1":30.2991,"la2":30.254,"lo1":-89.0895,"lo2":-89.0444,"dy":0.0017,"dx":0.0017,"nx":28,"ny":28,"refTime":"2023-10-31T21:00:00:Z","depth":0,"parameterNumber":3,"parameterNumberName":"V-component_of_WINDS"},"data":[0,0,0,0,0,0,0,0,0,0,0,0,0,0,0,0,0,0,0,0,0,0,0,0,0,0,0,0,0,0,0,0,0,0,0,0,0,0,0,0,0,0,0,0,0,0,0,0,0,0,0,0,0,0,0,0,0,0,-9.3971,-9.3973,0,-9.4131,-9.4133,-9.4134,-9.4004,-9.3999,-9.3993,-9.3988,-9.4144,-9.4153,-9.4162,0,0,0,0,0,0,0,0,0,0,0,0,0,-9.3545,-9.3553,-9.3971,-9.3973,-9.3975,-9.413,-9.4133,-9.4135,-9.4005,-9.3998,-9.3992,-9.3985,-9.4141,-9.4151,-9.4162,0,0,0,0,0,0,0,0,0,0,0,0,0,-9.372,-9.3556,-9.3971,-9.3929,-9.3927,-9.413,-9.4133,-9.4135,-9.4006,-9.3998,-9.399,-9.3982,-9.4137,-9.415,-9.4164,-9.4414,0,0,-9.4206,-9.4212,0,0,0,0,0,0,0,0,-9.371,-9.3735,-9.3933,-9.3932,-9.393,-9.4039,-9.4039,-9.4228,-9.4009,-9.3976,-9.3988,-9.3978,-9.4115,-9.413,-9.4178,-9.4421,-9.4428,-9.4208,-9.4216,-9.4222,-9.4226,0,0,0,0,0,0,0,-9.3698,-9.3728,-9.4034,-9.3936,-9.3935,-9.39,-9.3915,-9.4075,-9.4089,-9.3978,-9.3969,-9.399,-9.4112,-9.4165,-9.418,-9.443,-9.4207,-9.422,-9.4228,-9.4233,-9.4884,-9.4893,0,0,0,0,0,0,-9.3691,-9.3719,-9.4029,-9.4039,-9.3798,-9.3914,-9.3932,-9.4012,-9.4087,-9.4091,-9.3997,-9.3984,-9.4145,-9.4164,-9.4185,-9.4482,-9.4222,-9.4235,-9.4243,-9.4875,-9.4886,-9.4896,0,0,0,0,0,0,-9.3683,-9.372,-9.4022,-9.3876,-9.3912,-9.393,-9.4022,-9.402,-9.4072,-9.4102,-9.4103,-9.4049,-9.4139,-9.4166,-9.4358,-9.4486,-9.4241,-9.4254,-9.4865,-9.4879,-9.4891,-9.5079,0,0,0,0,0,0,-9.3671,-9.3718,-9.3815,-9.388,-9.3921,-9.4196,-9.403,-9.4029,-9.4097,-9.4081,-9.415,-9.4154,-9.4135,-9.4338,-9.4372,-9.4501,-9.4265,-9.4853,-9.4871,-9.4887,-9.5061,-9.5097,-9.5128,0,0,0,0,0,-9.3656,-9.386,-9.3821,-9.3859,-9.4043,-9.4204,-9.4227,-9.4203,-9.4108,-9.4205,-9.4223,-9.4151,-9.4466,-9.4359,-9.4396,-9.4531,-9.4845,-9.4866,-9.4886,-9.5046,-9.509,-9.5127,0,0,0,0,0,0,-9.3808,-9.3868,-9.3825,-9.4057,-9.4126,-9.4181,-9.4303,-9.425,-9.4346,-9.4327,-9.4291,-9.4308,-9.4511,-9.4539,-9.4419,-9.4775,-9.464,-9.4669,-9.475,-9.4791,-9.4824,-9.4813,-9.4276,0,0,0,0,0,-9.3869,-9.3997,-9.4041,-9.4241,-9.4278,-9.4285,-9.4354,-9.433,-9.44,-9.4428,-9.446,-9.4528,-9.4642,-9.4718,-9.4825,-9.5064,-9.5076,-9.5175,-9.5208,-9.5235,-9.526,-9.5388,-9.5432,-9.4962,-9.4962,-9.4962,0,0,-9.3995,-9.4043,-9.4126,-9.4273,-9.4324,-9.4455,-9.431,-9.4455,-9.4551,-9.4448,-9.4633,-9.4659,-9.4732,-9.495,-9.5047,-9.498,-9.5392,-9.5261,-9.5282,-9.5293,-9.5413,-9.5457,-9.5497,-9.4976,-9.4973,-9.4971,0,0,-9.4291,-9.4342,-9.4514,-9.4569,-9.4649,-9.4652,-9.4693,-9.4757,-9.4771,-9.4956,-9.4882,-9.4993,-9.5191,-9.5246,-9.53,-9.5617,-9.5554,-9.5652,-9.5826,-9.595,-9.5987,-9.602,-9.6132,-9.6173,-9.5677,-9.5677,-9.5678,0,-9.4437,-9.4635,-9.4608,-9.4759,-9.4825,-9.474,-9.4913,-9.4966,-9.5076,-9.5122,-9.5046,-9.5292,-9.5335,-9.5563,-9.5641,-9.5687,-9.5732,-9.5645,-9.5985,-9.6017,-9.6047,-9.6154,-9.6196,-9.5689,-9.5688,-9.5686,-9.5685,0,-9.481,-9.4947,-9.5076,-9.5188,-9.5267,-9.5428,-9.5423,-9.5507,-9.5475,-9.5486,-9.5674,-9.5723,-9.5837,-9.5889,-9.5859,-9.6114,-9.607,-9.599,-9.5853,-9.6104,-9.6203,-9.6244,-9.5705,-9.5701,-9.5698,-9.5695,0,0,-9.5208,-9.5303,-9.535,-9.5399,-9.5481,-9.5586,-9.5741,-9.5856,-9.5928,-9.6006,-9.6134,-9.6303,-9.623,-9.6291,-9.6266,-9.6375,-9.6623,-9.6282,-9.6283,-9.6343,-9.6904,-9.6964,-9.7012,-9.6581,-9.6589,-9.6595,-9.6898,0,-9.5508,-9.5783,-9.5763,-9.602,-9.6146,-9.6067,-9.6202,-9.6265,-9.6278,-9.6384,-9.6397,-9.6518,-9.6412,-9.6448,-9.6553,-9.6571,-9.6735,-9.6548,-9.6698,-9.6704,-9.6683,-9.7064,-9.7128,-9.7413,-9.6937,-9.6943,-9.6948,0,-9.5896,-9.5991,-9.6262,-9.6324,-9.6376,-9.6499,-9.6602,-9.6705,-9.6774,-9.6775,-9.6844,-9.68,-9.6954,-9.6814,-9.7024,-9.6897,-9.6957,-9.6974,-9.6984,-9.6998,-9.6842,-9.7088,-9.7503,-9.7546,-9.7009,-9.7005,-9.7,0,-9.6159,-9.6354,-9.6541,-9.6585,-9.6663,-9.6751,-9.6786,-9.6847,-9.6917,-9.7006,-9.7051,-9.7155,-9.7213,-9.7293,-9.7278,-9.7177,-9.7492,-9.735,-9.7496,-9.7496,-9.7566,-9.7562,-9.7996,-9.7604,-9.7604,-9.7603,-9.7602,0,-9.6497,-9.6666,-9.666,-9.6776,-9.6961,-9.6935,-9.7119,-9.7143,-9.7199,-9.7315,-9.7251,-9.7361,-9.7334,-9.7442,-9.7431,-9.7606,-9.7632,-9.7636,-9.7631,-9.7642,-9.7642,-9.7681,-9.7661,-9.7614,-9.7612,-9.7609,-9.7608,0,-9.6823,-9.6826,-9.7025,-9.7083,-9.7101,-9.7235,-9.7283,-9.739,-9.7397,-9.7546,-9.7578,-9.759,-9.7714,-9.7706,-9.7846,-9.7837,-9.8054,-9.8025,-9.8032,-9.8026,-9.8172,-9.8158,-9.8647,-9.8709,-9.8277,-9.8281,-9.8284,0,-9.7039,-9.7168,-9.7239,-9.7314,-9.7357,-9.7478,-9.7549,-9.7527,-9.7604,-9.7692,-9.7788,-9.7907,-9.8001,-9.8202,-9.8221,-9.8326,-9.83,-9.8464,-9.8315,-9.8322,-9.8302,-9.8295,-9.8307,-9.8493,-9.8498,-9.8502,-9.8505,0,-9.7422,-9.7417,-9.7524,-9.7633,-9.7721,-9.7805,-9.788,-9.7944,-9.793,-9.8019,-9.8146,-9.8219,-9.8362,-9.848,-9.8581,-9.8614,-9.8558,-9.8552,-9.8591,-9.8604,-9.8603,-9.8605,-9.8112,-9.8541,-9.8537,-9.8534,-9.8533,-9.8531,-9.7699,-9.781,-9.7878,-9.7999,-9.8054,-9.8127,-9.8231,-9.8252,-9.8359,-9.8476,-9.8455,-9.8598,-9.8661,-9.8791,-9.8834,-9.8943,-9.8884,-9.8941,-9.8955,-9.897,-9.8987,-9.8585,-9.8961,-9.896,-9.8959,-9.8958,-9.8957,0,-9.8079,-9.8119,-9.8231,-9.8341,-9.8436,-9.8376,-9.8457,-9.8539,-9.8667,-9.8732,-9.8826,-9.8972,-9.9086,-9.9114,-9.9222,-9.9304,-9.9281,-9.9333,-9.9327,-9.9336,-9.9033,-9.8989,-9.9351,-9.9351,-9.9351,-9.935,-9.935,-9.935,-9.8287,-9.8471,-9.8474,-9.8683,-9.8721,-9.8863,-9.8914,-9.8979,-9.9031,-9.9198,-9.9294,-9.9312,-9.9361,-9.9473,-9.9574,-9.9578,-9.9621,-9.9685,-9.9679,-9.9396,-9.9357,-9.9319,-9.9277,-9.9694,-9.9695,-9.9972,-9.9975,-9.9977]}]]